Flag for Germany Weather past 2 weeks in Ludwigsfelde, Brandenburg, Germany

Now
49 °F

Fog.


Feels Like: 49 °F
Forecast: 52 / 71 °F
Wind: 2 mph from Northeast

Location: Potsdam


UV Index: 3 (Moderate)

Visibility: 0 mi


Pressure: 30.18 "Hg

Humidity: 99%

Dew point: 48 °F

Location of LudwigsfeldeLocation

Historic Weather in Ludwigsfelde

°F

Ludwigsfelde temperature yesterday

Maximum temperature yesterday: 71 °F (at 3:00 PM)
Minimum temperature yesterday: 50 °F (at 8:00 AM)
Average temperature yesterday: 59 °F

Past Weeks' High & Low Weather Summary

 TemperatureHumidityPressure
High71 °F (Apr 23, 3:00 PM)99% (Apr 12, 4:00 AM)30.46 "Hg (Apr 12, 4:00 AM)
Low34 °F (Apr 16, 6:00 AM)27% (Apr 16, 3:00 PM)29.71 "Hg (Apr 14, 12:00 PM)
Average51 °F74%30.02 "Hg
* Reported Apr 9 7:00 AM — Apr 24 7:00 AM, Ludwigsfelde, Weather by CustomWeather, © 2014

Note: Actual official high and low records may vary slightly from our data, if they occured in-between our weather recording intervals... More about our weather records

Advertising

Historic Weather Conditions — Data for Previous 24 hours

 ConditionsComfort  
Time TempWeatherWind HumidityBarometerVisibility
7:00 AM
Apr 24
48 °FFog.3 mph98%30.16 "Hg0 mi
6:00 AM48 °FFog.2 mph97%30.16 "Hg1 mi
5:00 AM49 °FFog.1 mph96%30.16 "Hg2 mi
4:00 AM49 °FFog.3 mph94%30.16 "Hg3 mi
3:00 AM51 °FFog.2 mph95%30.15 "Hg4 mi
2:00 AM52 °FPassing clouds.3 mph95%30.16 "Hg6 mi
1:00 AM54 °FPassing clouds.3 mph95%30.15 "Hg6 mi
12:00 AM56 °FPassing clouds.2 mph92%30.14 "Hg11 mi
11:00 PM
Apr 23
56 °FPassing clouds.3 mph91%30.14 "Hg14 mi
10:00 PM58 °FPassing clouds.3 mph84%30.14 "Hg17 mi
9:00 PM61 °FPassing clouds.5 mph74%30.13 "Hg17 mi
8:00 PM64 °FPartly sunny.3 mph68%30.10 "Hg17 mi
7:00 PM67 °FPartly sunny.5 mph58%30.08 "Hg17 mi
6:00 PM68 °FPartly sunny.5 mph54%30.08 "Hg22 mi
5:00 PM65 °FPartly sunny.3 mph57%30.08 "Hg19 mi
4:00 PM70 °FPartly sunny.2 mph48%30.08 "Hg22 mi
3:00 PM71 °FPartly sunny.3 mph47%30.09 "Hg25 mi
2:00 PM68 °FPartly sunny.2 mph50%30.10 "Hg25 mi
1:00 PM67 °FScattered clouds.3 mph61%30.10 "Hg25 mi
12:00 PM64 °FScattered clouds.1 mph75%30.11 "Hg14 mi
11:00 AM59 °FFog.2 mph86%30.11 "Hg3 mi
10:00 AM55 °FFog.2 mph93%30.10 "Hg1 mi
9:00 AM52 °FFog.3 mph99%30.09 "Hg0 mi
8:00 AM50 °FFog.3 mph99%30.08 "Hg0 mi
Weather by CustomWeather, © 2014

See weather overview